(252275) = 2001 QA230

Discovered at Anderson Mesa on 2001-08-24 by LONEOS.

Orbit

Orbit type: Main Belt

Note: WebGL enabled browser required.

epoch2023-09-13.0
epoch JD2460200.5
perihelion date2023-02-22.04663
perihelion JD2459997.54663
argument of perihelion (°)341.34503
ascending node (°)328.05532
inclination (°)12.62572
eccentricity0.1574961
perihelion distance (AU)2.2515212
Tisserand w.r.t. Jupiter3.3
ΔV w.r.t. Earth (km/sec)10.2
semimajor axis (AU)2.6724163
mean anomaly (°)45.78718
mean daily motion (°/day)0.22560450
aphelion distance (AU)3.093
period (years)4.37
P-vector [x]0.63882775
P-vector [y]-0.67513228
P-vector [z]-0.36891124
Q-vector [x]0.76060756
Q-vector [y]0.48214266
Q-vector [z]0.43475809
absolute magnitude16.1
phase slope0.15
uncertainty0
referenceMPEC 2024-A124
observations used446
oppositions14
arc length (days)8174
first opposition used2001
last opposition used2024
residual rms (arc-secs)0.68
perturbers coarse indicatorM-v
perturbers precise indicator003Ek
first observation date used2001-08-24.0
last observation date used2024-01-10.0
computer nameMPCLINUX
JD of orbit computation2456966.798667
perihelion JD uncertainty (days)7.9961E-05
argument of perihelion uncertainty (°)2.6300E-05
ascending node uncertainty (°)1.6933E-05
inclination uncertainty (°)9.4078E-06
eccentricity uncertainty 8.0378E-08
perihelion distance uncertainty (AU)2.1652E-07
Minimum Orbit Intersection Distances (in AU)
for orbit epoch: 2460200.5, reference: E2024-AC4
Mercury1.81504
Venus1.52353
Earth1.24057
Mars0.85922
Jupiter2.20724
Saturn6.05308
Uranus15.4124
Neptune27.1438

Observations

454 total observations over interval: 2001 08 24.31165 – 2024 01 10.089651
These data are available for download (format description).

Date (UT) J2000 RA J2000 Dec Magn Location Ref
2001 08 24.31165 23 46 21.01 +06 14 55.6 19.3 R 699 – Lowell Observatory-LONEOS MPS 34872
2001 08 24.34405 23 46 19.37 +06 15 03.0   699 – Lowell Observatory-LONEOS MPS 34872
2001 08 24.37157 23 46 17.99 +06 15 06.6   699 – Lowell Observatory-LONEOS MPS 34872
2001 08 24.39914 23 46 16.62 +06 15 12.6   699 – Lowell Observatory-LONEOS MPS 34872
2001 08 25.33351 23 45 31.74 +06 18 10.2 20.3   704 – Lincoln Laboratory ETS, New Mexico MPS 34872
2001 08 25.34662 23 45 31.01 +06 18 12.6 20.2   704 – Lincoln Laboratory ETS, New Mexico MPS 34872
2001 08 25.38501 23 45 29.01 +06 18 20.1 20.3   704 – Lincoln Laboratory ETS, New Mexico MPS 34872
2001 09 08.19760 23 32 38.33 +06 44 24.9 19.2   704 – Lincoln Laboratory ETS, New Mexico MPS 34872
2001 09 08.21121 23 32 37.49 +06 44 26.1 19.2   704 – Lincoln Laboratory ETS, New Mexico MPS 34872
2001 09 08.22503 23 32 36.61 +06 44 26.8 18.8   704 – Lincoln Laboratory ETS, New Mexico MPS 34872
2001 09 08.23867 23 32 35.73 +06 44 27.1 19.0   704 – Lincoln Laboratory ETS, New Mexico MPS 34872
2001 09 08.25233 23 32 34.87 +06 44 29.0 19.1   704 – Lincoln Laboratory ETS, New Mexico MPS 34872
2001 09 16.31088 23 24 20.11 +06 45 45.8 19.9   704 – Lincoln Laboratory ETS, New Mexico MPS 36115
2001 09 16.32521 23 24 19.14 +06 45 45.7 19.8   704 – Lincoln Laboratory ETS, New Mexico MPS 36115
2001 09 16.33955 23 24 18.21 +06 45 44.3 19.3   704 – Lincoln Laboratory ETS, New Mexico MPS 36115
2001 09 16.35481 23 24 17.20 +06 45 44.1 19.3   704 – Lincoln Laboratory ETS, New Mexico MPS 36115
2001 09 18.18497 23 22 26.28 +06 44 49.3 18.5 R 699 – Lowell Observatory-LONEOS MPS 36115
2001 09 18.20849 23 22 24.74 +06 44 48.2   699 – Lowell Observatory-LONEOS MPS 36115
2001 09 18.23212 23 22 23.20 +06 44 48.1   699 – Lowell Observatory-LONEOS MPS 36115
2001 09 18.25555 23 22 21.90 +06 44 45.6   699 – Lowell Observatory-LONEOS MPS 36115
2001 09 20.24885 23 20 22.04 +06 43 22.6 18.3   704 – Lincoln Laboratory ETS, New Mexico MPS 36115
2001 09 20.27891 23 20 20.17 +06 43 21.1 19.0   704 – Lincoln Laboratory ETS, New Mexico MPS 36115
2001 09 20.29494 23 20 19.14 +06 43 19.0 19.1   704 – Lincoln Laboratory ETS, New Mexico MPS 36115
2001 09 20.30911 23 20 18.34 +06 43 18.4 19.4   704 – Lincoln Laboratory ETS, New Mexico MPS 36115
2001 09 23.24879 23 17 26.63 +06 40 31.9 18.7   704 – Lincoln Laboratory ETS, New Mexico MPS 43718
2001 09 23.27811 23 17 24.90 +06 40 29.6 20.0   704 – Lincoln Laboratory ETS, New Mexico MPS 43718
2001 09 23.30777 23 17 23.07 +06 40 27.9 19.3   704 – Lincoln Laboratory ETS, New Mexico MPS 43718
2001 09 25.18719 23 15 37.11 +06 38 19.0 18.8   704 – Lincoln Laboratory ETS, New Mexico MPS 49395
2001 09 25.20178 23 15 36.24 +06 38 17.5 19.7   704 – Lincoln Laboratory ETS, New Mexico MPS 49395
2001 09 25.21665 23 15 35.46 +06 38 17.0 19.5   704 – Lincoln Laboratory ETS, New Mexico MPS 49395
2001 09 25.23141 23 15 34.55 +06 38 15.9 19.5   704 – Lincoln Laboratory ETS, New Mexico MPS 49395
2001 09 25.24678 23 15 33.65 +06 38 15.0 18.9   704 – Lincoln Laboratory ETS, New Mexico MPS 49395
2005 07 10.51667 20 04 04.45 -34 05 20.5 18.8 V 428 – Reedy Creek MPS 138606
2005 07 10.55627 20 04 01.68 -34 05 15.2 19.0 V 428 – Reedy Creek MPS 138606
2005 07 15.53738 19 58 29.10 -33 53 03.5 19.2 V 428 – Reedy Creek MPS 138606
2005 07 15.56624 19 58 27.13 -33 52 57.4 19.0 V 428 – Reedy Creek MPS 138606
2005 07 29.59977 19 42 53.28 -32 52 31.8 18.4 V E12 – Siding Spring Survey MPS 138606
2005 07 29.61066 19 42 52.59 -32 52 30.0 18.4 V E12 – Siding Spring Survey MPS 138606
2005 07 29.62157 19 42 51.87 -32 52 25.2 18.3 V E12 – Siding Spring Survey MPS 138606
2005 07 29.63246 19 42 51.19 -32 52 21.3 18.9 V E12 – Siding Spring Survey MPS 138606
2008 02 02.31279 10 04 43.82 +13 26 46.0 20.9 V G96 – Mt. Lemmon Survey MPS 236139
2008 02 02.31836 10 04 43.50 +13 26 46.7 20.7 V G96 – Mt. Lemmon Survey MPS 236139
2008 02 02.32389 10 04 43.21 +13 26 47.6 21.8 V G96 – Mt. Lemmon Survey MPS 236139
2008 02 02.32948 10 04 42.85 +13 26 47.7 21.4 V G96 – Mt. Lemmon Survey MPS 236139
2008 02 10.28523 09 57 12.31 +13 40 48.0 20.1 V 703 – Catalina Sky Survey MPS 237381
2008 02 10.29196 09 57 11.80 +13 40 49.5 20.5 V 703 – Catalina Sky Survey MPS 237381
2008 02 10.29865 09 57 11.30 +13 40 48.9 20.4 V 703 – Catalina Sky Survey MPS 237381
2008 02 10.30534 09 57 11.01 +13 40 51.2 19.9 V 703 – Catalina Sky Survey MPS 237381
2008 02 16.99444 09 50 34.69 +13 52 32.0 20.9 V 198 – Wildberg MPS 239141
2008 02 16.99725 09 50 34.50 +13 52 32.0 20.4 V 198 – Wildberg MPS 239141
2008 02 17.00007 09 50 34.32 +13 52 32.3 20.7 V 198 – Wildberg MPS 239141
2008 02 17.00851 09 50 33.78 +13 52 32.9 20.7 V 198 – Wildberg MPS 239141
2008 02 17.01203 09 50 33.54 +13 52 33.1 20.7 V 198 – Wildberg MPS 239141
2008 02 24.31968 09 43 24.42 +14 03 51.5 19.6 V G96 – Mt. Lemmon Survey MPS 239318
2008 02 24.32465 09 43 24.13 +14 03 51.8 18.8 V G96 – Mt. Lemmon Survey MPS 239318
2008 02 24.32966 09 43 23.77 +14 03 52.1 20.2 V G96 – Mt. Lemmon Survey MPS 239318
2008 02 24.33463 09 43 23.52 +14 03 52.6 20.1 V G96 – Mt. Lemmon Survey MPS 239318
2008 03 12.23133 09 29 00.24 +14 18 08.1 20.8 V G96 – Mt. Lemmon Survey MPS 241976
2008 03 12.23911 09 28 59.88 +14 18 08.2 20.1 V G96 – Mt. Lemmon Survey MPS 241976
2008 03 12.24696 09 28 59.55 +14 18 08.5 20.5 V G96 – Mt. Lemmon Survey MPS 241976
2008 03 12.25478 09 28 59.19 +14 18 08.5 20.7 V G96 – Mt. Lemmon Survey MPS 241976
2008 03 28.14259 09 20 33.36 +14 10 45.5 21.3 V G96 – Mt. Lemmon Survey MPS 243972
2008 03 28.14961 09 20 33.21 +14 10 45.0 20.8 V G96 – Mt. Lemmon Survey MPS 243972
2008 03 28.15665 09 20 33.07 +14 10 45.0 20.9 V G96 – Mt. Lemmon Survey MPS 243972
2008 03 28.16367 09 20 32.92 +14 10 44.3 21.1 V G96 – Mt. Lemmon Survey MPS 243972
2010 06 18.44429 01 02 43.11 +12 34 35.0 20.6 V G96 – Mt. Lemmon Survey MPS 331885
2010 06 18.44958 01 02 43.51 +12 34 39.6 20.6 V G96 – Mt. Lemmon Survey MPS 331885
2010 06 18.45481 01 02 43.90 +12 34 43.5 20.4 V G96 – Mt. Lemmon Survey MPS 331885
2010 07 22.639670 01 41 05.098 +19 30 53.17   C51 – WISE MPS 903790
2010 07 23.168885 01 41 33.024 +19 36 51.98   C51 – WISE MPS 903790
2010 07 23.433493 01 41 46.860 +19 39 50.36   C51 – WISE MPS 903790
2010 07 23.565797 01 41 53.885 +19 41 22.81   C51 – WISE MPS 903790
2010 07 23.764189 01 42 04.361 +19 43 33.96   C51 – WISE MPS 903790
2010 10 09.35256 01 35 39.19 +28 41 01.6 19.1 V 703 – Catalina Sky Survey MPS 351056
2010 10 09.36184 01 35 38.61 +28 41 01.5 19.7 V 703 – Catalina Sky Survey MPS 351056
2010 10 09.37105 01 35 38.00 +28 41 00.6 19.4 V 703 – Catalina Sky Survey MPS 351056
2010 10 09.38034 01 35 37.46 +28 41 00.8 19.7 V 703 – Catalina Sky Survey MPS 351056
2010 10 16.28442 01 28 21.18 +28 31 03.4 19.5   704 – Lincoln Laboratory ETS, New Mexico MPS 351056
2010 10 16.29844 01 28 20.27 +28 31 02.5 19.6   704 – Lincoln Laboratory ETS, New Mexico MPS 351056
2010 10 16.31264 01 28 19.29 +28 30 59.3 19.4   704 – Lincoln Laboratory ETS, New Mexico MPS 351056
2010 10 16.32776 01 28 18.35 +28 30 58.0 19.8   704 – Lincoln Laboratory ETS, New Mexico MPS 351056
2010 10 16.34167 01 28 17.43 +28 30 55.2 19.1   704 – Lincoln Laboratory ETS, New Mexico MPS 351056
2010 11 12.15946 01 03 57.52 +26 26 48.7 19.7 V G96 – Mt. Lemmon Survey MPS 355199
2010 11 12.16639 01 03 57.27 +26 26 46.4 19.8 V G96 – Mt. Lemmon Survey MPS 355199
2010 11 12.17327 01 03 56.98 +26 26 44.1 19.5 V G96 – Mt. Lemmon Survey MPS 355199
2010 11 12.18015 01 03 56.73 +26 26 41.4 19.8 V G96 – Mt. Lemmon Survey MPS 355199
2011 12 29.40848 08 36 49.93 +28 35 20.9 20.7 V G96 – Mt. Lemmon Survey MPS 405814
2011 12 29.41714 08 36 49.50 +28 35 21.8 20.3 V G96 – Mt. Lemmon Survey MPS 405814
2011 12 29.42582 08 36 49.03 +28 35 22.7 20.7 V G96 – Mt. Lemmon Survey MPS 405814
2011 12 29.43456 08 36 48.60 +28 35 23.6 20.7 V G96 – Mt. Lemmon Survey MPS 405814
2012 01 25.48848 08 09 21.762 +29 05 03.13 20.8 r F51 – Pan-STARRS 1, Haleakala MPS 409992
2012 01 25.53061 08 09 18.936 +29 05 02.40 20.5 r F51 – Pan-STARRS 1, Haleakala MPS 409992
2012 01 25.54388 08 09 18.051 +29 05 02.14 20.2 i F51 – Pan-STARRS 1, Haleakala MPS 409992
